EUTELSAT 7 WEST A

Last updated on Tue Sep 22 2026 00:03:12 GMT+0000 (Coordinated Universal Time)

1 37816U 11051A 26264.34511670 -.00000064 00000+0 00000+0 0 9999 2 37816 0.0662 7.0023 0006093 170.7967 299.3691 1.00272803 54841
UTC large
Height (km)
Speed (km/s)
/
Latitude / Longitude
Inclination (degrees)
Orbital Period (minutes)
Azimuth
Elevation
Range (km)
Doppler Factor

Next 0 passes for location: London (51.5072 / 0.1276)

No passes found over London.
EUTELSAT 7 WEST A